sat.trackr.live / text

‹ back to catalog

BEE-1000

NORAD 66650 · 2025-274A

PAYLOAD ACTIVE UNKNOWN

§ Identity

Operator
Country
SKOR
Launch date
2025-11-26
Launch site
NSC
Launch vehicle
Mass (kg)
RCS (m²)

External: N2YO · Heavens-Above · Gunter

§ Orbital elements

Epoch: 2026-05-24T16:39:01.650240Z

Period
96.46 min
Inclination
97.7479°
Eccentricity
0.0013614
Mean motion
14.92779753 rev/d
Perigee alt
579.8 km
Apogee alt
598.8 km
Semi-major
6,967.4 km
B*
2.6445e-4
RAAN
74.1247°
Arg perigee
74.3930°
Mean anomaly
285.8791°
Rev number
2,670

§ Raw data

BEE-10001 66650U 25274A   26144.69376910  .00002682  00000+0  26445-3 0  99922 66650  97.7479  74.1247 0013614  74.3930 285.8791 14.92779753 26703

JSON: /api/v1/satellites/66650 · /tle

For live sub-satellite position, see the globe view (requires WebGL).

§ Visibility from observer

Set your observer location to see the next 7 days of passes ≥ 10°. The values pass through the URL so the page stays shareable.

No JS? Fill the form by hand. The geolocation button needs JavaScript.